Wetterdaten: Mittwoch, 27.01.2016
Datum Zeit Temp. A. Feuchte A. Luftdruck Regen Wind Richtung Richtung Sonnenschein ET UV Solar Taupunkt Windchill Windben Empfang
27.01.2016 00:00 -1,4 C 98 % 1027,0 hPa 0,0 l/m 1,5 km/h (1 Bft) S-SW 210 0 min 0,000 mm 0,0 UV-I 0 W/m -1,7 C -1,4 C 4,8 km/h (1 Bft) 99,17 %
27.01.2016 00:05 -1,4 C 98 % 1027,0 hPa 0,0 l/m 0,0 km/h (0 Bft) S-SW 210 0 min 0,000 mm 0,0 UV-I 0 W/m -1,7 C -1,4 C 1,6 km/h (1 Bft) 100,00 %
27.01.2016 00:10 -1,4 C 98 % 1027,0 hPa 0,0 l/m 0,4 km/h (0 Bft) S-SW 210 0 min 0,000 mm 0,0 UV-I 0 W/m -1,7 C -1,4 C 1,6 km/h (1 Bft) 99,17 %
27.01.2016 00:15 -1,4 C 98 % 1027,2 hPa 0,0 l/m 1,3 km/h (1 Bft) S-SW 210 0 min 0,000 mm 0,0 UV-I 0 W/m -1,7 C -1,4 C 3,2 km/h (1 Bft) 99,08 %
27.01.2016 00:20 -1,4 C 98 % 1027,0 hPa 0,0 l/m 2,4 km/h (1 Bft) S 191 0 min 0,000 mm 0,0 UV-I 0 W/m -1,7 C -1,4 C 4,8 km/h (1 Bft) 100,00 %
27.01.2016 00:25 -1,4 C 98 % 1027,1 hPa 0,0 l/m 2,2 km/h (1 Bft) S-SW 209 0 min 0,000 mm 0,0 UV-I 0 W/m -1,7 C -1,4 C 6,4 km/h (2 Bft) 97,25 %
27.01.2016 00:30 -1,3 C 98 % 1027,0 hPa 0,0 l/m 1,7 km/h (1 Bft) S 184 0 min 0,000 mm 0,0 UV-I 0 W/m -1,6 C -1,3 C 4,8 km/h (1 Bft) 99,19 %
27.01.2016 00:35 -1,3 C 98 % 1027,0 hPa 0,0 l/m 3,7 km/h (1 Bft) SW 217 0 min 0,000 mm 0,0 UV-I 0 W/m -1,6 C -1,3 C 8,0 km/h (2 Bft) 100,00 %
27.01.2016 00:40 -1,2 C 98 % 1026,8 hPa 0,0 l/m 1,3 km/h (1 Bft) S 173 0 min 0,000 mm 0,0 UV-I 0 W/m -1,5 C -1,2 C 3,2 km/h (1 Bft) 99,19 %
27.01.2016 00:45 -1,2 C 98 % 1026,9 hPa 0,0 l/m 2,4 km/h (1 Bft) S 170 0 min 0,000 mm 0,0 UV-I 0 W/m -1,5 C -1,2 C 6,4 km/h (2 Bft) 100,00 %
27.01.2016 00:50 -1,1 C 98 % 1026,9 hPa 0,0 l/m 2,0 km/h (1 Bft) S-SO 163 0 min 0,000 mm 0,0 UV-I 0 W/m -1,4 C -1,1 C 6,4 km/h (2 Bft) 100,00 %
27.01.2016 00:55 -1,1 C 98 % 1026,8 hPa 0,0 l/m 2,3 km/h (1 Bft) S-SO 163 0 min 0,000 mm 0,0 UV-I 0 W/m -1,4 C -1,1 C 6,4 km/h (2 Bft) 99,12 %
27.01.2016 01:00 -1,1 C 98 % 1026,7 hPa 0,0 l/m 1,4 km/h (1 Bft) S-SO 167 0 min 0,000 mm 0,0 UV-I 0 W/m -1,4 C -1,1 C 4,8 km/h (1 Bft) 99,11 %
27.01.2016 01:05 -1,1 C 98 % 1026,7 hPa 0,0 l/m 2,2 km/h (1 Bft) S-SO 165 0 min 0,000 mm 0,0 UV-I 0 W/m -1,4 C -1,1 C 6,4 km/h (2 Bft) 99,17 %
27.01.2016 01:10 -1,1 C 98 % 1026,5 hPa 0,0 l/m 4,3 km/h (1 Bft) S 169 0 min 0,000 mm 0,0 UV-I 0 W/m -1,4 C -1,1 C 8,0 km/h (2 Bft) 99,12 %
27.01.2016 01:15 -1,1 C 98 % 1026,6 hPa 0,0 l/m 2,1 km/h (1 Bft) S 170 0 min 0,000 mm 0,0 UV-I 0 W/m -1,4 C -1,1 C 4,8 km/h (1 Bft) 95,54 %
27.01.2016 01:20 -1,2 C 98 % 1026,6 hPa 0,0 l/m 1,8 km/h (1 Bft) S 170 0 min 0,000 mm 0,0 UV-I 0 W/m -1,5 C -1,2 C 3,2 km/h (1 Bft) 96,92 %
27.01.2016 01:25 -1,3 C 98 % 1026,6 hPa 0,0 l/m 0,8 km/h (0 Bft) W 267 0 min 0,000 mm 0,0 UV-I 0 W/m -1,6 C -1,3 C 3,2 km/h (1 Bft) 96,40 %
27.01.2016 01:30 -1,3 C 98 % 1026,6 hPa 0,0 l/m 1,0 km/h (0 Bft) SW 223 0 min 0,000 mm 0,0 UV-I 0 W/m -1,6 C -1,3 C 3,2 km/h (1 Bft) 96,52 %
27.01.2016 01:35 -1,3 C 98 % 1026,6 hPa 0,0 l/m 0,2 km/h (0 Bft) SW 223 0 min 0,000 mm 0,0 UV-I 0 W/m -1,6 C -1,3 C 1,6 km/h (1 Bft) 98,37 %
27.01.2016 01:40 -1,3 C 98 % 1026,7 hPa 0,0 l/m 0,9 km/h (0 Bft) SW 223 0 min 0,000 mm 0,0 UV-I 0 W/m -1,6 C -1,3 C 3,2 km/h (1 Bft) 96,33 %
27.01.2016 01:45 -1,3 C 98 % 1026,7 hPa 0,0 l/m 1,2 km/h (1 Bft) SW 223 0 min 0,000 mm 0,0 UV-I 0 W/m -1,6 C -1,3 C 3,2 km/h (1 Bft) 98,26 %
27.01.2016 01:50 -1,3 C 98 % 1026,7 hPa 0,0 l/m 0,8 km/h (0 Bft) SW 223 0 min 0,000 mm 0,0 UV-I 0 W/m -1,6 C -1,3 C 3,2 km/h (1 Bft) 100,00 %
27.01.2016 01:55 -1,3 C 98 % 1026,5 hPa 0,0 l/m 0,1 km/h (0 Bft) SW 223 0 min 0,000 mm 0,0 UV-I 0 W/m -1,6 C -1,3 C 1,6 km/h (1 Bft) 99,15 %
27.01.2016 02:00 -1,3 C 98 % 1026,5 hPa 0,0 l/m 0,1 km/h (0 Bft) SW 223 0 min 0,000 mm 0,0 UV-I 0 W/m -1,6 C -1,3 C 1,6 km/h (1 Bft) 98,35 %
27.01.2016 02:05 -1,4 C 98 % 1026,6 hPa 0,0 l/m 0,3 km/h (0 Bft) SW 224 0 min 0,000 mm 0,0 UV-I 0 W/m -1,7 C -1,4 C 1,6 km/h (1 Bft) 100,00 %
27.01.2016 02:10 -1,4 C 98 % 1026,5 hPa 0,0 l/m 0,1 km/h (0 Bft) SW 224 0 min 0,000 mm 0,0 UV-I 0 W/m -1,7 C -1,4 C 1,6 km/h (1 Bft) 100,00 %
27.01.2016 02:15 -1,4 C 98 % 1026,4 hPa 0,0 l/m 0,0 km/h (0 Bft) SW 224 0 min 0,000 mm 0,0 UV-I 0 W/m -1,7 C -1,4 C 0,0 km/h (0 Bft) 98,13 %
27.01.2016 02:20 -1,6 C 98 % 1026,3 hPa 0,0 l/m 0,6 km/h (0 Bft) SW 223 0 min 0,000 mm 0,0 UV-I 0 W/m -1,9 C -1,6 C 1,6 km/h (1 Bft) 100,00 %
27.01.2016 02:25 -1,6 C 98 % 1026,2 hPa 0,0 l/m 1,5 km/h (1 Bft) S 175 0 min 0,000 mm 0,0 UV-I 0 W/m -1,9 C -1,6 C 3,2 km/h (1 Bft) 100,00 %
27.01.2016 02:30 -1,6 C 98 % 1026,2 hPa 0,0 l/m 1,2 km/h (1 Bft) S 181 0 min 0,000 mm 0,0 UV-I 0 W/m -1,9 C -1,6 C 3,2 km/h (1 Bft) 99,12 %
27.01.2016 02:35 -1,7 C 98 % 1026,2 hPa 0,0 l/m 1,6 km/h (1 Bft) S 181 0 min 0,000 mm 0,0 UV-I 0 W/m -2,0 C -1,7 C 3,2 km/h (1 Bft) 99,11 %
27.01.2016 02:40 -1,7 C 98 % 1026,3 hPa 0,0 l/m 0,7 km/h (0 Bft) SW 217 0 min 0,000 mm 0,0 UV-I 0 W/m -2,0 C -1,7 C 3,2 km/h (1 Bft) 99,13 %
27.01.2016 02:45 -1,7 C 98 % 1026,2 hPa 0,0 l/m 0,0 km/h (0 Bft) SW 217 0 min 0,000 mm 0,0 UV-I 0 W/m -2,0 C -1,7 C 1,6 km/h (1 Bft) 100,00 %
27.01.2016 02:50 -1,8 C 98 % 1026,1 hPa 0,0 l/m 0,7 km/h (0 Bft) S 189 0 min 0,000 mm 0,0 UV-I 0 W/m -2,1 C -1,8 C 3,2 km/h (1 Bft) 98,21 %
27.01.2016 02:55 -1,8 C 98 % 1026,1 hPa 0,0 l/m 1,4 km/h (1 Bft) S 186 0 min 0,000 mm 0,0 UV-I 0 W/m -2,1 C -1,8 C 4,8 km/h (1 Bft) 99,15 %
27.01.2016 03:00 -1,8 C 98 % 1026,2 hPa 0,0 l/m 0,7 km/h (0 Bft) SW 217 0 min 0,000 mm 0,0 UV-I 0 W/m -2,1 C -1,8 C 3,2 km/h (1 Bft) 99,15 %
27.01.2016 03:05 -1,8 C 98 % 1026,1 hPa 0,0 l/m 0,3 km/h (0 Bft) SW 218 0 min 0,000 mm 0,0 UV-I 0 W/m -2,1 C -1,8 C 1,6 km/h (1 Bft) 100,00 %
27.01.2016 03:10 -1,8 C 98 % 1026,1 hPa 0,0 l/m 0,1 km/h (0 Bft) SW 218 0 min 0,000 mm 0,0 UV-I 0 W/m -2,1 C -1,8 C 1,6 km/h (1 Bft) 99,15 %
27.01.2016 03:15 -1,9 C 98 % 1026,1 hPa 0,0 l/m 0,8 km/h (0 Bft) SW 218 0 min 0,000 mm 0,0 UV-I 0 W/m -2,2 C -1,9 C 3,2 km/h (1 Bft) 96,43 %
27.01.2016 03:20 -2,0 C 98 % 1026,1 hPa 0,0 l/m 0,7 km/h (0 Bft) SW 218 0 min 0,000 mm 0,0 UV-I 0 W/m -2,3 C -2,0 C 3,2 km/h (1 Bft) 96,61 %
27.01.2016 03:25 -2,0 C 98 % 1026,0 hPa 0,0 l/m 1,9 km/h (1 Bft) SW 217 0 min 0,000 mm 0,0 UV-I 0 W/m -2,3 C -2,0 C 3,2 km/h (1 Bft) 95,83 %
27.01.2016 03:30 -2,0 C 98 % 1026,0 hPa 0,0 l/m 0,7 km/h (0 Bft) SW 218 0 min 0,000 mm 0,0 UV-I 0 W/m -2,3 C -2,0 C 3,2 km/h (1 Bft) 97,58 %
27.01.2016 03:35 -1,9 C 98 % 1026,1 hPa 0,0 l/m 0,2 km/h (0 Bft) SW 218 0 min 0,000 mm 0,0 UV-I 0 W/m -2,2 C -1,9 C 1,6 km/h (1 Bft) 98,06 %
27.01.2016 03:40 -1,9 C 98 % 1025,9 hPa 0,0 l/m 0,2 km/h (0 Bft) SW 218 0 min 0,000 mm 0,0 UV-I 0 W/m -2,2 C -1,9 C 3,2 km/h (1 Bft) 96,75 %
27.01.2016 03:45 -2,0 C 98 % 1026,1 hPa 0,0 l/m 0,8 km/h (0 Bft) SW 218 0 min 0,000 mm 0,0 UV-I 0 W/m -2,3 C -2,0 C 3,2 km/h (1 Bft) 99,19 %
27.01.2016 03:50 -2,0 C 98 % 1026,2 hPa 0,0 l/m 0,8 km/h (0 Bft) SW 218 0 min 0,000 mm 0,0 UV-I 0 W/m -2,3 C -2,0 C 3,2 km/h (1 Bft) 99,08 %
27.01.2016 03:55 -2,0 C 98 % 1026,1 hPa 0,0 l/m 0,3 km/h (0 Bft) SW 218 0 min 0,000 mm 0,0 UV-I 0 W/m -2,3 C -2,0 C 1,6 km/h (1 Bft) 99,17 %
27.01.2016 04:00 -2,0 C 98 % 1026,0 hPa 0,0 l/m 0,6 km/h (0 Bft) SW 218 0 min 0,000 mm 0,0 UV-I 0 W/m -2,3 C -2,0 C 3,2 km/h (1 Bft) 100,00 %
27.01.2016 04:05 -2,0 C 98 % 1026,0 hPa 0,0 l/m 1,0 km/h (0 Bft) SW 215 0 min 0,000 mm 0,0 UV-I 0 W/m -2,3 C -2,0 C 3,2 km/h (1 Bft) 100,00 %
27.01.2016 04:10 -2,1 C 98 % 1026,1 hPa 0,0 l/m 1,2 km/h (1 Bft) N-NW 328 0 min 0,000 mm 0,0 UV-I 0 W/m -2,4 C -2,1 C 4,8 km/h (1 Bft) 99,11 %
27.01.2016 04:15 -2,0 C 98 % 1026,1 hPa 0,0 l/m 1,9 km/h (1 Bft) S 180 0 min 0,000 mm 0,0 UV-I 0 W/m -2,3 C -2,0 C 6,4 km/h (2 Bft) 100,00 %
27.01.2016 04:20 -2,0 C 98 % 1026,0 hPa 0,0 l/m 1,7 km/h (1 Bft) S-SO 166 0 min 0,000 mm 0,0 UV-I 0 W/m -2,3 C -2,0 C 6,4 km/h (2 Bft) 98,45 %
27.01.2016 04:25 -2,0 C 98 % 1026,2 hPa 0,0 l/m 1,6 km/h (1 Bft) NW 315 0 min 0,000 mm 0,0 UV-I 0 W/m -2,3 C -2,0 C 6,4 km/h (2 Bft) 99,19 %
27.01.2016 04:30 -1,9 C 98 % 1026,1 hPa 0,0 l/m 0,8 km/h (0 Bft) SW 225 0 min 0,000 mm 0,0 UV-I 0 W/m -2,2 C -1,9 C 3,2 km/h (1 Bft) 97,37 %
27.01.2016 04:35 -1,9 C 98 % 1026,0 hPa 0,0 l/m 1,3 km/h (1 Bft) NW 311 0 min 0,000 mm 0,0 UV-I 0 W/m -2,2 C -1,9 C 4,8 km/h (1 Bft) 100,00 %
27.01.2016 04:40 -1,9 C 98 % 1026,2 hPa 0,0 l/m 1,3 km/h (1 Bft) W-SW 240 0 min 0,000 mm 0,0 UV-I 0 W/m -2,2 C -1,9 C 3,2 km/h (1 Bft) 100,00 %
27.01.2016 04:45 -1,9 C 98 % 1026,1 hPa 0,0 l/m 1,0 km/h (0 Bft) S 172 0 min 0,000 mm 0,0 UV-I 0 W/m -2,2 C -1,9 C 4,8 km/h (1 Bft) 100,00 %
27.01.2016 04:50 -1,9 C 98 % 1026,2 hPa 0,0 l/m 0,6 km/h (0 Bft) S 171 0 min 0,000 mm 0,0 UV-I 0 W/m -2,2 C -1,9 C 3,2 km/h (1 Bft) 100,00 %
27.01.2016 04:55 -1,9 C 98 % 1026,2 hPa 0,0 l/m 2,7 km/h (1 Bft) SW 235 0 min 0,000 mm 0,0 UV-I 0 W/m -2,2 C -1,9 C 4,8 km/h (1 Bft) 100,00 %
27.01.2016 05:00 -1,8 C 98 % 1026,3 hPa 0,0 l/m 4,1 km/h (1 Bft) S-SW 213 0 min 0,000 mm 0,0 UV-I 0 W/m -2,1 C -1,8 C 8,0 km/h (2 Bft) 99,12 %
27.01.2016 05:05 -1,8 C 98 % 1026,2 hPa 0,0 l/m 5,0 km/h (1 Bft) S 181 0 min 0,000 mm 0,0 UV-I 0 W/m -2,1 C -1,8 C 9,7 km/h (2 Bft) 100,00 %
27.01.2016 05:10 -1,8 C 98 % 1026,1 hPa 0,0 l/m 5,1 km/h (1 Bft) S-SO 154 0 min 0,000 mm 0,0 UV-I 0 W/m -2,1 C -1,8 C 8,0 km/h (2 Bft) 98,20 %
27.01.2016 05:15 -1,7 C 98 % 1026,1 hPa 0,0 l/m 4,7 km/h (1 Bft) S 187 0 min 0,000 mm 0,0 UV-I 0 W/m -2,0 C -1,7 C 8,0 km/h (2 Bft) 97,64 %
27.01.2016 05:20 -1,6 C 98 % 1026,2 hPa 0,0 l/m 4,8 km/h (1 Bft) S-SW 205 0 min 0,000 mm 0,0 UV-I 0 W/m -1,9 C -1,6 C 8,0 km/h (2 Bft) 97,46 %
27.01.2016 05:25 -1,6 C 98 % 1026,2 hPa 0,0 l/m 3,8 km/h (1 Bft) S-SW 198 0 min 0,000 mm 0,0 UV-I 0 W/m -1,9 C -1,6 C 6,4 km/h (2 Bft) 96,30 %
27.01.2016 05:30 -1,6 C 98 % 1026,2 hPa 0,0 l/m 2,6 km/h (1 Bft) S-SW 206 0 min 0,000 mm 0,0 UV-I 0 W/m -1,9 C -1,6 C 6,4 km/h (2 Bft) 96,52 %
27.01.2016 05:35 -1,4 C 98 % 1026,3 hPa 0,0 l/m 2,7 km/h (1 Bft) S-SW 207 0 min 0,000 mm 0,0 UV-I 0 W/m -1,7 C -1,4 C 4,8 km/h (1 Bft) 97,39 %
27.01.2016 05:40 -1,4 C 98 % 1026,3 hPa 0,0 l/m 0,5 km/h (0 Bft) S-SW 207 0 min 0,000 mm 0,0 UV-I 0 W/m -1,7 C -1,4 C 3,2 km/h (1 Bft) 96,75 %
27.01.2016 05:45 -1,4 C 98 % 1026,5 hPa 0,0 l/m 0,6 km/h (0 Bft) N-NW 335 0 min 0,000 mm 0,0 UV-I 0 W/m -1,7 C -1,4 C 3,2 km/h (1 Bft) 97,46 %
27.01.2016 05:50 -1,5 C 98 % 1026,5 hPa 0,0 l/m 1,7 km/h (1 Bft) N-NO 25 0 min 0,000 mm 0,0 UV-I 0 W/m -1,8 C -1,5 C 4,8 km/h (1 Bft) 100,00 %
27.01.2016 05:55 -1,5 C 98 % 1026,7 hPa 0,0 l/m 2,7 km/h (1 Bft) N-NO 21 0 min 0,000 mm 0,0 UV-I 0 W/m -1,8 C -1,5 C 4,8 km/h (1 Bft) 99,17 %
27.01.2016 06:00 -1,6 C 98 % 1026,5 hPa 0,0 l/m 1,7 km/h (1 Bft) N-NO 32 0 min 0,000 mm 0,0 UV-I 0 W/m -1,9 C -1,6 C 4,8 km/h (1 Bft) 98,31 %
27.01.2016 06:05 -1,8 C 98 % 1026,7 hPa 0,0 l/m 2,8 km/h (1 Bft) NO 55 0 min 0,000 mm 0,0 UV-I 0 W/m -2,1 C -1,8 C 4,8 km/h (1 Bft) 100,00 %
27.01.2016 06:10 -1,9 C 98 % 1026,7 hPa 0,0 l/m 2,5 km/h (1 Bft) O-NO 71 0 min 0,000 mm 0,0 UV-I 0 W/m -2,2 C -1,9 C 4,8 km/h (1 Bft) 100,00 %
27.01.2016 06:15 -2,0 C 98 % 1026,6 hPa 0,0 l/m 0,8 km/h (0 Bft) O-NO 71 0 min 0,000 mm 0,0 UV-I 0 W/m -2,3 C -2,0 C 3,2 km/h (1 Bft) 99,08 %
27.01.2016 06:20 -2,0 C 98 % 1026,7 hPa 0,0 l/m 1,2 km/h (1 Bft) S-SO 168 0 min 0,000 mm 0,0 UV-I 0 W/m -2,3 C -2,0 C 3,2 km/h (1 Bft) 100,00 %
27.01.2016 06:25 -2,1 C 98 % 1026,6 hPa 0,0 l/m 1,4 km/h (1 Bft) S-SO 168 0 min 0,000 mm 0,0 UV-I 0 W/m -2,4 C -2,1 C 3,2 km/h (1 Bft) 98,21 %
27.01.2016 06:30 -2,1 C 98 % 1026,4 hPa 0,0 l/m 3,3 km/h (1 Bft) S-SO 165 0 min 0,000 mm 0,0 UV-I 0 W/m -2,4 C -2,1 C 6,4 km/h (2 Bft) 100,00 %
27.01.2016 06:35 -1,9 C 98 % 1026,5 hPa 0,0 l/m 4,7 km/h (1 Bft) S 177 0 min 0,000 mm 0,0 UV-I 0 W/m -2,2 C -1,9 C 6,4 km/h (2 Bft) 98,37 %
27.01.2016 06:40 -1,8 C 98 % 1026,4 hPa 0,0 l/m 4,4 km/h (1 Bft) S 180 0 min 0,000 mm 0,0 UV-I 0 W/m -2,1 C -1,8 C 8,0 km/h (2 Bft) 99,11 %
27.01.2016 06:45 -1,7 C 98 % 1026,4 hPa 0,0 l/m 4,0 km/h (1 Bft) S 175 0 min 0,000 mm 0,0 UV-I 0 W/m -2,0 C -1,7 C 6,4 km/h (2 Bft) 98,41 %
27.01.2016 06:50 -1,4 C 98 % 1026,5 hPa 0,0 l/m 3,7 km/h (1 Bft) S 169 0 min 0,000 mm 0,0 UV-I 0 W/m -1,7 C -1,4 C 6,4 km/h (2 Bft) 99,11 %
27.01.2016 06:55 -1,3 C 98 % 1026,4 hPa 0,0 l/m 1,5 km/h (1 Bft) S-SO 160 0 min 0,000 mm 0,0 UV-I 0 W/m -1,6 C -1,3 C 4,8 km/h (1 Bft) 99,08 %
27.01.2016 07:00 -1,2 C 98 % 1026,5 hPa 0,0 l/m 2,3 km/h (1 Bft) O 85 0 min 0,000 mm 0,0 UV-I 0 W/m -1,5 C -1,2 C 3,2 km/h (1 Bft) 99,17 %
27.01.2016 07:05 -1,3 C 98 % 1026,5 hPa 0,0 l/m 2,5 km/h (1 Bft) NO 44 0 min 0,000 mm 0,0 UV-I 0 W/m -1,6 C -1,3 C 8,0 km/h (2 Bft) 100,00 %
27.01.2016 07:10 -1,6 C 98 % 1026,5 hPa 0,0 l/m 4,9 km/h (1 Bft) NO 42 0 min 0,000 mm 0,0 UV-I 0 W/m -1,9 C -1,6 C 8,0 km/h (2 Bft) 98,33 %
27.01.2016 07:15 -1,6 C 98 % 1026,5 hPa 0,0 l/m 0,3 km/h (0 Bft) NO 42 0 min 0,000 mm 0,0 UV-I 0 W/m -1,9 C -1,6 C 3,2 km/h (1 Bft) 96,77 %
27.01.2016 07:20 -1,7 C 98 % 1026,6 hPa 0,0 l/m 0,3 km/h (0 Bft) NO 42 0 min 0,000 mm 0,0 UV-I 0 W/m -2,0 C -1,7 C 1,6 km/h (1 Bft) 95,28 %
27.01.2016 07:25 -1,8 C 98 % 1026,7 hPa 0,0 l/m 0,1 km/h (0 Bft) NO 42 0 min 0,000 mm 0,0 UV-I 0 W/m -2,1 C -1,8 C 1,6 km/h (1 Bft) 96,75 %
27.01.2016 07:30 -1,9 C 98 % 1026,6 hPa 0,0 l/m 0,4 km/h (0 Bft) NO 42 0 min 0,000 mm 0,0 UV-I 0 W/m -2,2 C -1,9 C 1,6 km/h (1 Bft) 97,52 %
27.01.2016 07:35 -1,8 C 98 % 1026,7 hPa 0,0 l/m 1,6 km/h (1 Bft) NO 42 0 min 0,000 mm 0,0 UV-I 0 W/m -2,1 C -1,8 C 3,2 km/h (1 Bft) 97,25 %
27.01.2016 07:40 -1,8 C 98 % 1026,8 hPa 0,0 l/m 1,8 km/h (1 Bft) NO 35 0 min 0,000 mm 0,0 UV-I 3 W/m -2,1 C -1,8 C 3,2 km/h (1 Bft) 95,83 %
27.01.2016 07:45 -1,8 C 98 % 1026,8 hPa 0,0 l/m 3,6 km/h (1 Bft) NO 36 0 min 0,000 mm 0,0 UV-I 7 W/m -2,1 C -1,8 C 4,8 km/h (1 Bft) 97,39 %
27.01.2016 07:50 -1,8 C 98 % 1026,7 hPa 0,0 l/m 3,0 km/h (1 Bft) O 98 5 min 0,000 mm 0,0 UV-I 12 W/m -2,1 C -1,8 C 4,8 km/h (1 Bft) 97,56 %
27.01.2016 07:55 -1,8 C 98 % 1026,8 hPa 0,0 l/m 2,8 km/h (1 Bft) O 98 5 min 0,000 mm 0,0 UV-I 17 W/m -2,1 C -1,8 C 4,8 km/h (1 Bft) 98,17 %
27.01.2016 08:00 -1,8 C 98 % 1026,8 hPa 0,0 l/m 1,5 km/h (1 Bft) O 98 5 min 0,000 mm 0,0 UV-I 23 W/m -2,1 C -1,8 C 3,2 km/h (1 Bft) 97,52 %
27.01.2016 08:05 -1,6 C 98 % 1026,7 hPa 0,0 l/m 0,9 km/h (0 Bft) O 98 5 min 0,000 mm 0,0 UV-I 30 W/m -1,9 C -1,6 C 3,2 km/h (1 Bft) 98,29 %
27.01.2016 08:10 -1,6 C 98 % 1026,8 hPa 0,0 l/m 0,5 km/h (0 Bft) O 98 5 min 0,000 mm 0,0 UV-I 40 W/m -1,9 C -1,6 C 1,6 km/h (1 Bft) 98,39 %
27.01.2016 08:15 -1,5 C 98 % 1026,8 hPa 0,0 l/m 0,0 km/h (0 Bft) O 98 5 min 0,000 mm 0,0 UV-I 49 W/m -1,8 C -1,5 C 0,0 km/h (0 Bft) 100,00 %
27.01.2016 08:20 -1,4 C 98 % 1026,9 hPa 0,0 l/m 0,3 km/h (0 Bft) O 98 5 min 0,000 mm 0,0 UV-I 53 W/m -1,7 C -1,4 C 3,2 km/h (1 Bft) 100,00 %
27.01.2016 08:25 -1,4 C 98 % 1026,9 hPa 0,0 l/m 0,3 km/h (0 Bft) O 98 0 min 0,000 mm 0,0 UV-I 54 W/m -1,7 C -1,4 C 1,6 km/h (1 Bft) 99,17 %
27.01.2016 08:30 -1,4 C 98 % 1026,9 hPa 0,0 l/m 0,0 km/h (0 Bft) O 98 0 min 0,000 mm 0,0 UV-I 53 W/m -1,7 C -1,4 C 0,0 km/h (0 Bft) 100,00 %
27.01.2016 08:40 -1,4 C 98 % 1026,8 hPa 0,0 l/m 0,3 km/h (0 Bft) O 98 0 min 0,000 mm 0,0 UV-I 64 W/m -1,7 C -1,4 C 1,6 km/h (1 Bft) 99,06 %
27.01.2016 08:45 -1,2 C 98 % 1026,9 hPa 0,0 l/m 0,4 km/h (0 Bft) O 98 0 min 0,000 mm 0,0 UV-I 68 W/m -1,5 C -1,2 C 1,6 km/h (1 Bft) 99,21 %
27.01.2016 08:50 -1,1 C 98 % 1027,0 hPa 0,0 l/m 0,5 km/h (0 Bft) O 98 0 min 0,000 mm 0,0 UV-I 63 W/m -1,4 C -1,1 C 1,6 km/h (1 Bft) 100,00 %
27.01.2016 08:55 -1,1 C 98 % 1027,0 hPa 0,0 l/m 0,0 km/h (0 Bft) O 98 0 min 0,000 mm 0,0 UV-I 65 W/m -1,4 C -1,1 C 0,0 km/h (0 Bft) 99,19 %
27.01.2016 09:00 -0,9 C 98 % 1027,0 hPa 0,0 l/m 0,4 km/h (0 Bft) O 98 0 min 0,025 mm 0,0 UV-I 69 W/m -1,2 C -0,9 C 3,2 km/h (1 Bft) 100,00 %
27.01.2016 09:05 -0,9 C 98 % 1027,1 hPa 0,0 l/m 0,1 km/h (0 Bft) O 98 0 min 0,000 mm 0,0 UV-I 70 W/m -1,2 C -0,9 C 1,6 km/h (1 Bft) 99,09 %
27.01.2016 09:10 -0,8 C 98 % 1027,0 hPa 0,0 l/m 0,0 km/h (0 Bft) O 98 0 min 0,000 mm 0,0 UV-I 75 W/m -1,1 C -0,8 C 1,6 km/h (1 Bft) 99,17 %
27.01.2016 09:15 -0,8 C 98 % 1027,0 hPa 0,0 l/m 0,1 km/h (0 Bft) O 98 0 min 0,000 mm 0,0 UV-I 80 W/m -1,1 C -0,8 C 1,6 km/h (1 Bft) 98,35 %
27.01.2016 09:20 -0,7 C 98 % 1027,0 hPa 0,0 l/m 0,1 km/h (0 Bft) O 98 0 min 0,000 mm 0,0 UV-I 84 W/m -1,0 C -0,7 C 1,6 km/h (1 Bft) 97,46 %
27.01.2016 09:25 -0,6 C 98 % 1026,9 hPa 0,0 l/m 0,1 km/h (0 Bft) O-SO 117 0 min 0,000 mm 0,0 UV-I 89 W/m -0,9 C -0,6 C 1,6 km/h (1 Bft) 96,30 %
27.01.2016 09:30 -0,5 C 98 % 1026,9 hPa 0,0 l/m 0,2 km/h (0 Bft) O-SO 117 0 min 0,000 mm 0,0 UV-I 98 W/m -0,8 C -0,5 C 1,6 km/h (1 Bft) 96,85 %
27.01.2016 09:35 -0,4 C 98 % 1026,9 hPa 0,0 l/m 0,4 km/h (0 Bft) O-SO 117 0 min 0,000 mm 0,0 UV-I 105 W/m -0,7 C -0,4 C 3,2 km/h (1 Bft) 96,33 %
27.01.2016 09:40 -0,2 C 99 % 1026,9 hPa 0,0 l/m 1,0 km/h (0 Bft) O-SO 117 0 min 0,000 mm 0,0 UV-I 103 W/m -0,3 C -0,2 C 3,2 km/h (1 Bft) 95,93 %
27.01.2016 09:45 -0,1 C 98 % 1026,9 hPa 0,0 l/m 0,7 km/h (0 Bft) O-SO 117 0 min 0,000 mm 0,0 UV-I 104 W/m -0,4 C -0,1 C 3,2 km/h (1 Bft) 96,61 %
27.01.2016 09:50 0,1 C 99 % 1026,7 hPa 0,0 l/m 0,6 km/h (0 Bft) O-SO 117 0 min 0,000 mm 0,0 UV-I 114 W/m -0,0 C 0,1 C 3,2 km/h (1 Bft) 97,25 %
27.01.2016 09:55 0,2 C 99 % 1026,7 hPa 0,0 l/m 0,7 km/h (0 Bft) O-SO 117 0 min 0,000 mm 0,0 UV-I 121 W/m 0,1 C 0,2 C 1,6 km/h (1 Bft) 98,33 %
27.01.2016 10:00 0,2 C 99 % 1026,7 hPa 0,0 l/m 0,0 km/h (0 Bft) O-SO 117 0 min 0,026 mm 0,0 UV-I 117 W/m 0,1 C 0,2 C 1,6 km/h (1 Bft) 98,26 %
27.01.2016 10:05 0,2 C 99 % 1026,7 hPa 0,0 l/m 0,3 km/h (0 Bft) O-SO 117 0 min 0,000 mm 0,0 UV-I 109 W/m 0,1 C 0,2 C 1,6 km/h (1 Bft) 100,00 %
27.01.2016 10:10 0,2 C 99 % 1026,6 hPa 0,0 l/m 0,0 km/h (0 Bft) O-SO 117 0 min 0,000 mm 0,0 UV-I 110 W/m 0,1 C 0,2 C 0,0 km/h (0 Bft) 99,11 %
27.01.2016 10:15 0,3 C 99 % 1026,4 hPa 0,0 l/m 0,5 km/h (0 Bft) O-SO 117 0 min 0,000 mm 0,0 UV-I 116 W/m 0,2 C 0,3 C 3,2 km/h (1 Bft) 100,00 %
27.01.2016 10:20 0,4 C 99 % 1026,5 hPa 0,0 l/m 0,5 km/h (0 Bft) N-NW 329 0 min 0,000 mm 0,0 UV-I 120 W/m 0,3 C 0,4 C 1,6 km/h (1 Bft) 98,37 %
27.01.2016 10:25 0,3 C 99 % 1026,4 hPa 0,0 l/m 0,0 km/h (0 Bft) N-NW 337 0 min 0,000 mm 0,0 UV-I 128 W/m 0,2 C 0,3 C 1,6 km/h (1 Bft) 97,37 %
27.01.2016 10:30 0,4 C 99 % 1026,5 hPa 0,0 l/m 0,0 km/h (0 Bft) N-NW 337 0 min 0,000 mm 0,0 UV-I 134 W/m 0,3 C 0,4 C 1,6 km/h (1 Bft) 100,00 %
27.01.2016 10:35 0,6 C 99 % 1026,5 hPa 0,0 l/m 1,6 km/h (1 Bft) N 360 0 min 0,000 mm 0,0 UV-I 141 W/m 0,5 C 0,6 C 4,8 km/h (1 Bft) 100,00 %
27.01.2016 10:40 0,6 C 99 % 1026,5 hPa 0,0 l/m 4,7 km/h (1 Bft) NO 36 0 min 0,000 mm 0,0 UV-I 133 W/m 0,5 C 0,6 C 9,7 km/h (2 Bft) 98,50 %
27.01.2016 10:45 0,5 C 99 % 1026,5 hPa 0,0 l/m 8,4 km/h (2 Bft) NO 39 0 min 0,000 mm 0,0 UV-I 137 W/m 0,4 C -1,5 C 11,3 km/h (2 Bft) 100,00 %
27.01.2016 10:50 0,7 C 99 % 1026,5 hPa 0,0 l/m 7,6 km/h (2 Bft) NO 38 0 min 0,000 mm 0,4 UV-I 147 W/m 0,6 C -0,5 C 9,7 km/h (2 Bft) 99,17 %
27.01.2016 10:55 0,7 C 99 % 1026,6 hPa 0,0 l/m 5,8 km/h (2 Bft) N-NO 20 0 min 0,000 mm 0,5 UV-I 163 W/m 0,6 C 0,7 C 8,0 km/h (2 Bft) 99,08 %
27.01.2016 11:00 0,8 C 99 % 1026,6 hPa 0,0 l/m 5,3 km/h (1 Bft) N-NO 25 0 min 0,051 mm 0,5 UV-I 181 W/m 0,7 C 0,8 C 8,0 km/h (2 Bft) 97,58 %
27.01.2016 11:05 1,1 C 99 % 1026,6 hPa 0,0 l/m 3,7 km/h (1 Bft) N-NO 30 0 min 0,000 mm 0,6 UV-I 192 W/m 1,0 C 1,1 C 6,4 km/h (2 Bft) 98,68 %
27.01.2016 11:15 1,4 C 99 % 1026,3 hPa 0,0 l/m 3,5 km/h (1 Bft) O-SO 107 10 min 0,000 mm 0,6 UV-I 222 W/m 1,3 C 1,4 C 4,8 km/h (1 Bft) 98,88 %
27.01.2016 11:20 1,7 C 99 % 1026,1 hPa 0,0 l/m 1,8 km/h (1 Bft) O-SO 119 5 min 0,000 mm 0,6 UV-I 229 W/m 1,6 C 1,7 C 3,2 km/h (1 Bft) 99,19 %
27.01.2016 11:25 2,2 C 99 % 1026,1 hPa 0,0 l/m 0,5 km/h (0 Bft) O-SO 119 5 min 0,000 mm 0,6 UV-I 225 W/m 2,1 C 2,2 C 3,2 km/h (1 Bft) 98,26 %
27.01.2016 11:30 2,2 C 99 % 1026,2 hPa 0,0 l/m 0,2 km/h (0 Bft) O-NO 71 0 min 0,000 mm 0,6 UV-I 205 W/m 2,1 C 2,2 C 1,6 km/h (1 Bft) 95,83 %
27.01.2016 11:35 2,1 C 99 % 1026,1 hPa 0,0 l/m 1,2 km/h (1 Bft) O-NO 67 0 min 0,000 mm 0,5 UV-I 173 W/m 2,0 C 2,1 C 4,8 km/h (1 Bft) 95,41 %
27.01.2016 11:40 2,3 C 99 % 1026,0 hPa 0,0 l/m 3,6 km/h (1 Bft) SO 124 0 min 0,000 mm 0,5 UV-I 146 W/m 2,2 C 2,3 C 6,4 km/h (2 Bft) 97,58 %
27.01.2016 11:45 2,3 C 99 % 1025,8 hPa 0,0 l/m 4,3 km/h (1 Bft) SO 134 0 min 0,000 mm 0,5 UV-I 130 W/m 2,2 C 2,3 C 6,4 km/h (2 Bft) 97,37 %
27.01.2016 11:50 2,6 C 99 % 1025,8 hPa 0,0 l/m 2,7 km/h (1 Bft) S-SO 147 0 min 0,000 mm 0,5 UV-I 129 W/m 2,5 C 2,6 C 6,4 km/h (2 Bft) 97,58 %
27.01.2016 11:55 2,7 C 98 % 1025,9 hPa 0,0 l/m 1,2 km/h (1 Bft) S-SO 147 0 min 0,000 mm 0,5 UV-I 138 W/m 2,4 C 2,7 C 3,2 km/h (1 Bft) 96,33 %
27.01.2016 12:00 2,8 C 98 % 1025,9 hPa 0,0 l/m 0,7 km/h (0 Bft) S-SO 148 0 min 0,050 mm 0,5 UV-I 151 W/m 2,5 C 2,8 C 3,2 km/h (1 Bft) 100,00 %
27.01.2016 12:05 2,8 C 98 % 1025,8 hPa 0,0 l/m 0,4 km/h (0 Bft) S-SO 147 0 min 0,000 mm 0,6 UV-I 150 W/m 2,5 C 2,8 C 1,6 km/h (1 Bft) 96,06 %
27.01.2016 12:10 2,8 C 97 % 1025,7 hPa 0,0 l/m 0,8 km/h (0 Bft) S-SO 147 0 min 0,000 mm 0,6 UV-I 143 W/m 2,4 C 2,8 C 3,2 km/h (1 Bft) 99,15 %
27.01.2016 12:15 2,9 C 97 % 1025,6 hPa 0,0 l/m 1,2 km/h (1 Bft) S-SO 147 0 min 0,000 mm 0,6 UV-I 142 W/m 2,5 C 2,9 C 3,2 km/h (1 Bft) 99,08 %
27.01.2016 12:20 2,9 C 97 % 1025,5 hPa 0,0 l/m 1,3 km/h (1 Bft) O-SO 113 0 min 0,000 mm 0,6 UV-I 138 W/m 2,5 C 2,9 C 3,2 km/h (1 Bft) 100,00 %
27.01.2016 12:25 3,0 C 97 % 1025,5 hPa 0,0 l/m 0,4 km/h (0 Bft) O-SO 115 0 min 0,000 mm 0,6 UV-I 124 W/m 2,6 C 3,0 C 3,2 km/h (1 Bft) 99,19 %
27.01.2016 12:30 3,2 C 97 % 1025,5 hPa 0,0 l/m 4,0 km/h (1 Bft) S-SW 193 0 min 0,000 mm 0,6 UV-I 108 W/m 2,8 C 3,2 C 8,0 km/h (2 Bft) 100,00 %
27.01.2016 12:35 3,2 C 97 % 1025,4 hPa 0,0 l/m 4,3 km/h (1 Bft) S 186 0 min 0,000 mm 0,7 UV-I 119 W/m 2,8 C 3,2 C 6,4 km/h (2 Bft) 96,61 %
27.01.2016 12:40 3,4 C 97 % 1025,3 hPa 0,0 l/m 2,2 km/h (1 Bft) W 275 0 min 0,000 mm 0,7 UV-I 167 W/m 3,0 C 3,4 C 3,2 km/h (1 Bft) 99,02 %
27.01.2016 12:45 3,4 C 97 % 1025,3 hPa 0,0 l/m 0,5 km/h (0 Bft) W 275 0 min 0,000 mm 0,8 UV-I 215 W/m 3,0 C 3,4 C 3,2 km/h (1 Bft) 98,43 %
27.01.2016 12:50 3,3 C 97 % 1025,2 hPa 0,0 l/m 0,1 km/h (0 Bft) W 275 0 min 0,000 mm 0,7 UV-I 170 W/m 2,9 C 3,3 C 1,6 km/h (1 Bft) 99,19 %
27.01.2016 12:55 3,5 C 97 % 1025,1 hPa 0,0 l/m 0,0 km/h (0 Bft) W 275 0 min 0,000 mm 0,7 UV-I 143 W/m 3,1 C 3,5 C 0,0 km/h (0 Bft) 98,26 %
27.01.2016 13:00 3,6 C 96 % 1025,0 hPa 0,0 l/m 0,3 km/h (0 Bft) S-SW 202 0 min 0,051 mm 0,7 UV-I 140 W/m 3,0 C 3,6 C 3,2 km/h (1 Bft) 99,17 %
27.01.2016 13:05 3,7 C 96 % 1024,9 hPa 0,0 l/m 0,2 km/h (0 Bft) S-SW 202 0 min 0,000 mm 0,7 UV-I 149 W/m 3,1 C 3,7 C 1,6 km/h (1 Bft) 98,10 %
27.01.2016 13:10 3,8 C 96 % 1024,8 hPa 0,0 l/m 0,6 km/h (0 Bft) S-SW 202 0 min 0,000 mm 0,8 UV-I 203 W/m 3,2 C 3,8 C 3,2 km/h (1 Bft) 99,23 %
27.01.2016 13:15 4,1 C 97 % 1024,8 hPa 0,0 l/m 0,0 km/h (0 Bft) S-SW 202 0 min 0,000 mm 0,7 UV-I 191 W/m 3,7 C 4,1 C 0,0 km/h (0 Bft) 100,00 %
27.01.2016 13:20 3,8 C 96 % 1024,9 hPa 0,0 l/m 1,0 km/h (0 Bft) S-SW 202 0 min 0,000 mm 0,7 UV-I 164 W/m 3,2 C 3,8 C 3,2 km/h (1 Bft) 100,00 %
27.01.2016 13:25 3,7 C 96 % 1025,0 hPa 0,0 l/m 0,5 km/h (0 Bft) N-NW 336 0 min 0,000 mm 0,7 UV-I 172 W/m 3,1 C 3,7 C 3,2 km/h (1 Bft) 99,19 %
27.01.2016 13:30 3,8 C 97 % 1025,0 hPa 0,0 l/m 1,1 km/h (1 Bft) N 5 0 min 0,000 mm 0,6 UV-I 161 W/m 3,4 C 3,8 C 3,2 km/h (1 Bft) 97,50 %
27.01.2016 13:35 4,1 C 97 % 1024,9 hPa 0,0 l/m 1,1 km/h (1 Bft) N 9 0 min 0,000 mm 0,6 UV-I 165 W/m 3,7 C 4,1 C 3,2 km/h (1 Bft) 94,50 %
27.01.2016 13:40 4,4 C 95 % 1024,8 hPa 0,0 l/m 2,5 km/h (1 Bft) NO 41 0 min 0,000 mm 0,6 UV-I 163 W/m 3,7 C 4,4 C 4,8 km/h (1 Bft) 95,90 %
27.01.2016 13:45 4,3 C 95 % 1024,7 hPa 0,0 l/m 0,7 km/h (0 Bft) NO 44 5 min 0,000 mm 0,6 UV-I 243 W/m 3,6 C 4,3 C 3,2 km/h (1 Bft) 97,37 %
27.01.2016 13:50 4,6 C 96 % 1024,8 hPa 0,0 l/m 0,1 km/h (0 Bft) NO 44 5 min 0,000 mm 0,6 UV-I 261 W/m 4,0 C 4,6 C 3,2 km/h (1 Bft) 96,77 %
27.01.2016 13:55 4,9 C 95 % 1024,8 hPa 0,0 l/m 1,0 km/h (0 Bft) NO 44 5 min 0,000 mm 0,6 UV-I 260 W/m 4,2 C 4,9 C 3,2 km/h (1 Bft) 97,32 %
27.01.2016 14:00 5,1 C 94 % 1024,8 hPa 0,0 l/m 0,3 km/h (0 Bft) NO 44 5 min 0,076 mm 0,6 UV-I 234 W/m 4,2 C 5,1 C 3,2 km/h (1 Bft) 96,67 %
27.01.2016 14:05 5,4 C 93 % 1024,6 hPa 0,0 l/m 0,7 km/h (0 Bft) NO 44 5 min 0,000 mm 0,6 UV-I 247 W/m 4,4 C 5,4 C 3,2 km/h (1 Bft) 99,15 %
27.01.2016 14:10 5,6 C 93 % 1024,6 hPa 0,0 l/m 0,1 km/h (0 Bft) NO 51 5 min 0,000 mm 0,6 UV-I 261 W/m 4,6 C 5,6 C 1,6 km/h (1 Bft) 99,13 %
27.01.2016 14:15 5,8 C 92 % 1024,6 hPa 0,0 l/m 0,5 km/h (0 Bft) NO 52 5 min 0,000 mm 0,5 UV-I 227 W/m 4,6 C 5,8 C 3,2 km/h (1 Bft) 98,33 %
27.01.2016 14:20 6,0 C 90 % 1024,6 hPa 0,0 l/m 0,5 km/h (0 Bft) NO 51 5 min 0,000 mm 0,2 UV-I 190 W/m 4,5 C 6,0 C 3,2 km/h (1 Bft) 98,35 %
27.01.2016 14:25 6,2 C 90 % 1024,5 hPa 0,0 l/m 1,3 km/h (1 Bft) NO 51 0 min 0,000 mm 0,0 UV-I 149 W/m 4,7 C 6,2 C 3,2 km/h (1 Bft) 99,15 %
27.01.2016 14:30 6,1 C 89 % 1024,5 hPa 0,0 l/m 1,0 km/h (0 Bft) NO 51 0 min 0,000 mm 0,0 UV-I 125 W/m 4,4 C 6,1 C 3,2 km/h (1 Bft) 100,00 %
27.01.2016 14:35 6,0 C 90 % 1024,4 hPa 0,0 l/m 1,6 km/h (1 Bft) NO 51 0 min 0,000 mm 0,0 UV-I 159 W/m 4,5 C 6,0 C 4,8 km/h (1 Bft) 100,00 %
27.01.2016 14:40 6,1 C 89 % 1024,4 hPa 0,0 l/m 2,4 km/h (1 Bft) NO 51 5 min 0,000 mm 0,0 UV-I 166 W/m 4,4 C 6,1 C 4,8 km/h (1 Bft) 99,17 %
27.01.2016 14:45 6,1 C 90 % 1024,4 hPa 0,0 l/m 0,8 km/h (0 Bft) NO 51 0 min 0,000 mm 0,0 UV-I 130 W/m 4,6 C 6,1 C 3,2 km/h (1 Bft) 97,52 %
27.01.2016 14:50 6,0 C 91 % 1024,4 hPa 0,0 l/m 1,5 km/h (1 Bft) NO 51 0 min 0,000 mm 0,0 UV-I 122 W/m 4,6 C 6,0 C 4,8 km/h (1 Bft) 100,00 %
27.01.2016 14:55 6,0 C 91 % 1024,3 hPa 0,0 l/m 2,5 km/h (1 Bft) NO 51 0 min 0,000 mm 0,0 UV-I 122 W/m 4,6 C 6,0 C 4,8 km/h (1 Bft) 99,17 %
27.01.2016 15:00 6,0 C 91 % 1024,3 hPa 0,0 l/m 2,4 km/h (1 Bft) NO 51 0 min 0,077 mm 0,0 UV-I 124 W/m 4,6 C 6,0 C 4,8 km/h (1 Bft) 97,32 %
27.01.2016 15:05 5,8 C 92 % 1024,3 hPa 0,0 l/m 2,6 km/h (1 Bft) NO 51 0 min 0,000 mm 0,0 UV-I 106 W/m 4,6 C 5,8 C 4,8 km/h (1 Bft) 99,15 %
27.01.2016 15:10 5,7 C 92 % 1024,4 hPa 0,0 l/m 2,3 km/h (1 Bft) NO 43 0 min 0,000 mm 0,0 UV-I 99 W/m 4,5 C 5,7 C 3,2 km/h (1 Bft) 99,19 %
27.01.2016 15:15 5,6 C 92 % 1024,4 hPa 0,0 l/m 0,5 km/h (0 Bft) NO 42 0 min 0,000 mm 0,0 UV-I 85 W/m 4,4 C 5,6 C 4,8 km/h (1 Bft) 100,00 %
27.01.2016 15:20 5,3 C 93 % 1024,5 hPa 0,0 l/m 0,5 km/h (0 Bft) N-NO 30 0 min 0,000 mm 0,0 UV-I 76 W/m 4,3 C 5,3 C 3,2 km/h (1 Bft) 98,41 %
27.01.2016 15:25 5,3 C 93 % 1024,5 hPa 0,0 l/m 1,7 km/h (1 Bft) N-NO 30 0 min 0,000 mm 0,0 UV-I 73 W/m 4,3 C 5,3 C 4,8 km/h (1 Bft) 99,17 %
27.01.2016 15:30 5,3 C 94 % 1024,5 hPa 0,0 l/m 1,8 km/h (1 Bft) N-NO 30 0 min 0,000 mm 0,0 UV-I 73 W/m 4,4 C 5,3 C 3,2 km/h (1 Bft) 97,73 %
27.01.2016 15:35 5,3 C 93 % 1024,4 hPa 0,0 l/m 2,0 km/h (1 Bft) NO 51 0 min 0,000 mm 0,0 UV-I 76 W/m 4,3 C 5,3 C 4,8 km/h (1 Bft) 96,53 %
27.01.2016 15:40 5,1 C 95 % 1024,4 hPa 0,0 l/m 2,5 km/h (1 Bft) O-NO 78 0 min 0,000 mm 0,0 UV-I 72 W/m 4,4 C 5,1 C 4,8 km/h (1 Bft) 96,61 %
27.01.2016 15:45 5,1 C 95 % 1024,4 hPa 0,0 l/m 0,7 km/h (0 Bft) O-SO 121 0 min 0,000 mm 0,0 UV-I 67 W/m 4,4 C 5,1 C 3,2 km/h (1 Bft) 96,58 %
27.01.2016 15:50 4,9 C 96 % 1024,4 hPa 0,0 l/m 1,1 km/h (1 Bft) O-SO 121 0 min 0,000 mm 0,0 UV-I 61 W/m 4,3 C 4,9 C 3,2 km/h (1 Bft) 96,52 %
27.01.2016 15:55 4,9 C 96 % 1024,3 hPa 0,0 l/m 1,4 km/h (1 Bft) O-SO 107 0 min 0,000 mm 0,0 UV-I 51 W/m 4,3 C 4,9 C 4,8 km/h (1 Bft) 96,61 %
27.01.2016 16:00 5,2 C 96 % 1024,4 hPa 0,0 l/m 3,1 km/h (1 Bft) W 270 0 min 0,025 mm 0,0 UV-I 45 W/m 4,6 C 5,2 C 6,4 km/h (2 Bft) 98,20 %
27.01.2016 16:05 5,3 C 95 % 1024,4 hPa 0,0 l/m 0,7 km/h (0 Bft) W-NW 302 0 min 0,000 mm 0,0 UV-I 41 W/m 4,6 C 5,3 C 4,8 km/h (1 Bft) 98,26 %
27.01.2016 16:10 5,3 C 95 % 1024,4 hPa 0,0 l/m 0,9 km/h (0 Bft) W 271 0 min 0,000 mm 0,0 UV-I 40 W/m 4,6 C 5,3 C 3,2 km/h (1 Bft) 99,19 %
27.01.2016 16:15 5,4 C 95 % 1024,3 hPa 0,0 l/m 0,9 km/h (0 Bft) W 270 0 min 0,000 mm 0,0 UV-I 38 W/m 4,7 C 5,4 C 3,2 km/h (1 Bft) 99,10 %
27.01.2016 16:20 5,3 C 95 % 1024,3 hPa 0,0 l/m 0,4 km/h (0 Bft) S-SO 166 0 min 0,000 mm 0,0 UV-I 31 W/m 4,6 C 5,3 C 4,8 km/h (1 Bft) 100,00 %
27.01.2016 16:25 5,1 C 96 % 1024,3 hPa 0,0 l/m 0,3 km/h (0 Bft) S-SO 166 0 min 0,000 mm 0,0 UV-I 21 W/m 4,5 C 5,1 C 1,6 km/h (1 Bft) 99,14 %
27.01.2016 16:30 4,8 C 95 % 1024,4 hPa 0,0 l/m 0,1 km/h (0 Bft) S-SO 166 0 min 0,000 mm 0,0 UV-I 14 W/m 4,1 C 4,8 C 1,6 km/h (1 Bft) 98,26 %
27.01.2016 16:35 4,8 C 96 % 1024,4 hPa 0,0 l/m 0,6 km/h (0 Bft) S-SO 166 0 min 0,000 mm 0,0 UV-I 11 W/m 4,2 C 4,8 C 4,8 km/h (1 Bft) 99,13 %
27.01.2016 16:40 5,1 C 97 % 1024,2 hPa 0,0 l/m 1,8 km/h (1 Bft) S-SO 158 0 min 0,000 mm 0,0 UV-I 9 W/m 4,7 C 5,1 C 6,4 km/h (2 Bft) 100,00 %
27.01.2016 16:45 4,9 C 96 % 1024,3 hPa 0,0 l/m 1,0 km/h (0 Bft) S-SO 158 0 min 0,000 mm 0,0 UV-I 7 W/m 4,3 C 4,9 C 3,2 km/h (1 Bft) 100,00 %
27.01.2016 16:50 5,0 C 96 % 1024,2 hPa 0,0 l/m 2,1 km/h (1 Bft) S 169 0 min 0,000 mm 0,0 UV-I 3 W/m 4,4 C 5,0 C 8,0 km/h (2 Bft) 99,24 %
27.01.2016 16:55 4,9 C 96 % 1024,2 hPa 0,0 l/m 1,0 km/h (0 Bft) S 169 0 min 0,000 mm 0,0 UV-I 0 W/m 4,3 C 4,9 C 6,4 km/h (2 Bft) 100,00 %
27.01.2016 17:00 4,8 C 96 % 1024,3 hPa 0,0 l/m 0,9 km/h (0 Bft) NW 304 0 min 0,000 mm 0,0 UV-I 0 W/m 4,2 C 4,8 C 3,2 km/h (1 Bft) 98,39 %
27.01.2016 17:05 4,6 C 96 % 1024,3 hPa 0,0 l/m 0,1 km/h (0 Bft) NW 304 0 min 0,000 mm 0,0 UV-I 0 W/m 4,0 C 4,6 C 1,6 km/h (1 Bft) 99,12 %
27.01.2016 17:10 4,6 C 97 % 1024,3 hPa 0,0 l/m 1,1 km/h (1 Bft) NW 304 0 min 0,000 mm 0,0 UV-I 0 W/m 4,2 C 4,6 C 3,2 km/h (1 Bft) 100,00 %
27.01.2016 17:15 4,4 C 97 % 1024,3 hPa 0,0 l/m 0,0 km/h (0 Bft) NW 304 0 min 0,000 mm 0,0 UV-I 0 W/m 4,0 C 4,4 C 1,6 km/h (1 Bft) 100,00 %
27.01.2016 17:20 4,3 C 97 % 1024,2 hPa 0,0 l/m 0,3 km/h (0 Bft) NW 304 0 min 0,000 mm 0,0 UV-I 0 W/m 3,9 C 4,3 C 1,6 km/h (1 Bft) 100,00 %
27.01.2016 17:25 4,3 C 97 % 1024,2 hPa 0,0 l/m 0,0 km/h (0 Bft) NW 304 0 min 0,000 mm 0,0 UV-I 0 W/m 3,9 C 4,3 C 1,6 km/h (1 Bft) 100,00 %
27.01.2016 17:30 4,2 C 97 % 1024,1 hPa 0,0 l/m 0,8 km/h (0 Bft) NW 304 0 min 0,000 mm 0,0 UV-I 0 W/m 3,8 C 4,2 C 3,2 km/h (1 Bft) 99,13 %
27.01.2016 17:35 4,1 C 97 % 1024,1 hPa 0,0 l/m 2,9 km/h (1 Bft) NW 304 0 min 0,000 mm 0,0 UV-I 0 W/m 3,7 C 4,1 C 4,8 km/h (1 Bft) 99,10 %
27.01.2016 17:40 4,3 C 98 % 1024,0 hPa 0,0 l/m 0,7 km/h (0 Bft) NW 304 0 min 0,000 mm 0,0 UV-I 0 W/m 4,0 C 4,3 C 3,2 km/h (1 Bft) 98,39 %
27.01.2016 17:45 4,3 C 98 % 1024,0 hPa 0,0 l/m 0,9 km/h (0 Bft) W-NW 288 0 min 0,000 mm 0,0 UV-I 0 W/m 4,0 C 4,3 C 3,2 km/h (1 Bft) 98,21 %
27.01.2016 17:50 4,1 C 97 % 1023,9 hPa 0,0 l/m 2,4 km/h (1 Bft) S-SW 208 0 min 0,000 mm 0,0 UV-I 0 W/m 3,7 C 4,1 C 4,8 km/h (1 Bft) 95,93 %
27.01.2016 17:55 4,1 C 98 % 1023,9 hPa 0,0 l/m 1,8 km/h (1 Bft) S-SW 208 0 min 0,000 mm 0,0 UV-I 0 W/m 3,8 C 4,1 C 3,2 km/h (1 Bft) 97,32 %
27.01.2016 18:00 4,2 C 98 % 1024,0 hPa 0,0 l/m 0,6 km/h (0 Bft) W-NW 292 0 min 0,000 mm 0,0 UV-I 0 W/m 3,9 C 4,2 C 3,2 km/h (1 Bft) 96,67 %
27.01.2016 18:05 3,7 C 97 % 1024,0 hPa 0,0 l/m 0,7 km/h (0 Bft) NW 309 0 min 0,000 mm 0,0 UV-I 0 W/m 3,3 C 3,7 C 3,2 km/h (1 Bft) 98,26 %
27.01.2016 18:10 3,6 C 97 % 1024,1 hPa 0,0 l/m 0,5 km/h (0 Bft) NW 309 0 min 0,000 mm 0,0 UV-I 0 W/m 3,2 C 3,6 C 3,2 km/h (1 Bft) 96,75 %
27.01.2016 18:15 3,7 C 98 % 1024,0 hPa 0,0 l/m 2,0 km/h (1 Bft) N-NO 30 0 min 0,000 mm 0,0 UV-I 0 W/m 3,4 C 3,7 C 4,8 km/h (1 Bft) 95,41 %
27.01.2016 18:20 3,7 C 98 % 1024,1 hPa 0,0 l/m 4,4 km/h (1 Bft) NO 47 0 min 0,000 mm 0,0 UV-I 0 W/m 3,4 C 3,7 C 6,4 km/h (2 Bft) 97,46 %
27.01.2016 18:25 3,7 C 97 % 1024,0 hPa 0,0 l/m 4,1 km/h (1 Bft) NO 34 0 min 0,000 mm 0,0 UV-I 0 W/m 3,3 C 3,7 C 6,4 km/h (2 Bft) 100,00 %
27.01.2016 18:30 3,5 C 97 % 1024,0 hPa 0,0 l/m 3,9 km/h (1 Bft) N-NO 31 0 min 0,000 mm 0,0 UV-I 0 W/m 3,1 C 3,5 C 4,8 km/h (1 Bft) 99,21 %
27.01.2016 18:35 3,6 C 98 % 1024,0 hPa 0,0 l/m 3,3 km/h (1 Bft) N-NO 31 0 min 0,000 mm 0,0 UV-I 0 W/m 3,3 C 3,6 C 6,4 km/h (2 Bft) 100,00 %
27.01.2016 18:40 3,4 C 97 % 1024,0 hPa 0,0 l/m 3,6 km/h (1 Bft) N-NO 31 0 min 0,000 mm 0,0 UV-I 0 W/m 3,0 C 3,4 C 4,8 km/h (1 Bft) 99,10 %
27.01.2016 18:45 3,3 C 97 % 1024,0 hPa 0,0 l/m 2,3 km/h (1 Bft) N-NO 31 0 min 0,000 mm 0,0 UV-I 0 W/m 2,9 C 3,3 C 3,2 km/h (1 Bft) 100,00 %
27.01.2016 18:50 3,2 C 97 % 1023,9 hPa 0,0 l/m 0,2 km/h (0 Bft) N-NO 31 0 min 0,000 mm 0,0 UV-I 0 W/m 2,8 C 3,2 C 1,6 km/h (1 Bft) 100,00 %
27.01.2016 18:55 3,1 C 98 % 1023,8 hPa 0,0 l/m 1,2 km/h (1 Bft) N-NO 31 0 min 0,000 mm 0,0 UV-I 0 W/m 2,8 C 3,1 C 3,2 km/h (1 Bft) 98,15 %
27.01.2016 19:00 3,0 C 97 % 1023,7 hPa 0,0 l/m 1,5 km/h (1 Bft) NO 35 0 min 0,000 mm 0,0 UV-I 0 W/m 2,6 C 3,0 C 4,8 km/h (1 Bft) 100,00 %
27.01.2016 19:05 3,1 C 98 % 1023,8 hPa 0,0 l/m 1,3 km/h (1 Bft) NO 35 0 min 0,000 mm 0,0 UV-I 0 W/m 2,8 C 3,1 C 3,2 km/h (1 Bft) 99,11 %
27.01.2016 19:10 3,2 C 98 % 1023,7 hPa 0,0 l/m 2,3 km/h (1 Bft) NO 35 0 min 0,000 mm 0,0 UV-I 0 W/m 2,9 C 3,2 C 4,8 km/h (1 Bft) 100,00 %
27.01.2016 19:15 3,2 C 98 % 1023,7 hPa 0,0 l/m 1,4 km/h (1 Bft) NO 35 0 min 0,000 mm 0,0 UV-I 0 W/m 2,9 C 3,2 C 3,2 km/h (1 Bft) 97,35 %
27.01.2016 19:20 3,1 C 98 % 1023,6 hPa 0,0 l/m 1,0 km/h (0 Bft) NO 35 0 min 0,000 mm 0,0 UV-I 0 W/m 2,8 C 3,1 C 3,2 km/h (1 Bft) 100,00 %
27.01.2016 19:25 2,9 C 97 % 1023,5 hPa 0,0 l/m 0,7 km/h (0 Bft) NO 35 0 min 0,000 mm 0,0 UV-I 0 W/m 2,5 C 2,9 C 3,2 km/h (1 Bft) 99,22 %
27.01.2016 19:30 2,8 C 98 % 1023,5 hPa 0,0 l/m 0,0 km/h (0 Bft) NO 35 0 min 0,000 mm 0,0 UV-I 0 W/m 2,5 C 2,8 C 0,0 km/h (0 Bft) 99,08 %
27.01.2016 19:35 2,9 C 98 % 1023,4 hPa 0,0 l/m 0,0 km/h (0 Bft) NO 35 0 min 0,000 mm 0,0 UV-I 0 W/m 2,6 C 2,9 C 0,0 km/h (0 Bft) 98,41 %
27.01.2016 19:40 3,0 C 98 % 1023,4 hPa 0,0 l/m 0,0 km/h (0 Bft) NO 35 0 min 0,000 mm 0,0 UV-I 0 W/m 2,7 C 3,0 C 0,0 km/h (0 Bft) 100,00 %
27.01.2016 19:45 2,8 C 98 % 1023,4 hPa 0,0 l/m 1,0 km/h (0 Bft) N-NO 30 0 min 0,000 mm 0,0 UV-I 0 W/m 2,5 C 2,8 C 3,2 km/h (1 Bft) 99,15 %
27.01.2016 19:50 2,7 C 98 % 1023,3 hPa 0,0 l/m 0,3 km/h (0 Bft) N-NO 30 0 min 0,000 mm 0,0 UV-I 0 W/m 2,4 C 2,7 C 1,6 km/h (1 Bft) 98,31 %
27.01.2016 19:55 2,6 C 98 % 1023,4 hPa 0,0 l/m 0,5 km/h (0 Bft) N-NO 30 0 min 0,000 mm 0,0 UV-I 0 W/m 2,3 C 2,6 C 1,6 km/h (1 Bft) 97,25 %
27.01.2016 20:00 2,7 C 98 % 1023,4 hPa 0,0 l/m 0,5 km/h (0 Bft) N-NO 30 0 min 0,000 mm 0,0 UV-I 0 W/m 2,4 C 2,7 C 1,6 km/h (1 Bft) 97,62 %
27.01.2016 20:05 2,7 C 98 % 1023,3 hPa 0,0 l/m 0,5 km/h (0 Bft) N-NO 30 0 min 0,000 mm 0,0 UV-I 0 W/m 2,4 C 2,7 C 3,2 km/h (1 Bft) 98,21 %
27.01.2016 20:10 2,5 C 98 % 1023,2 hPa 0,0 l/m 0,6 km/h (0 Bft) N-NO 30 0 min 0,000 mm 0,0 UV-I 0 W/m 2,2 C 2,5 C 1,6 km/h (1 Bft) 97,39 %
27.01.2016 20:15 2,6 C 98 % 1023,2 hPa 0,0 l/m 0,3 km/h (0 Bft) N-NO 30 0 min 0,000 mm 0,0 UV-I 0 W/m 2,3 C 2,6 C 1,6 km/h (1 Bft) 94,87 %
27.01.2016 20:20 2,7 C 98 % 1023,2 hPa 0,0 l/m 0,5 km/h (0 Bft) N-NO 30 0 min 0,000 mm 0,0 UV-I 0 W/m 2,4 C 2,7 C 3,2 km/h (1 Bft) 96,77 %
27.01.2016 20:25 2,6 C 98 % 1023,2 hPa 0,0 l/m 0,0 km/h (0 Bft) N-NO 30 0 min 0,000 mm 0,0 UV-I 0 W/m 2,3 C 2,6 C 1,6 km/h (1 Bft) 97,50 %
27.01.2016 20:30 2,7 C 98 % 1023,1 hPa 0,0 l/m 0,7 km/h (0 Bft) N-NO 30 0 min 0,000 mm 0,0 UV-I 0 W/m 2,4 C 2,7 C 3,2 km/h (1 Bft) 96,61 %
27.01.2016 20:35 2,5 C 98 % 1023,0 hPa 0,0 l/m 0,2 km/h (0 Bft) N-NO 30 0 min 0,000 mm 0,0 UV-I 0 W/m 2,2 C 2,5 C 1,6 km/h (1 Bft) 97,25 %
27.01.2016 20:40 2,3 C 98 % 1023,0 hPa 0,0 l/m 0,4 km/h (0 Bft) N-NO 30 0 min 0,000 mm 0,0 UV-I 0 W/m 2,0 C 2,3 C 3,2 km/h (1 Bft) 100,00 %
27.01.2016 20:45 2,6 C 98 % 1023,0 hPa 0,0 l/m 0,1 km/h (0 Bft) N-NO 30 0 min 0,000 mm 0,0 UV-I 0 W/m 2,3 C 2,6 C 1,6 km/h (1 Bft) 96,52 %
27.01.2016 20:50 2,7 C 98 % 1023,0 hPa 0,0 l/m 0,6 km/h (0 Bft) N-NO 30 0 min 0,000 mm 0,0 UV-I 0 W/m 2,4 C 2,7 C 3,2 km/h (1 Bft) 99,13 %
27.01.2016 20:55 2,6 C 98 % 1022,9 hPa 0,0 l/m 1,5 km/h (1 Bft) O 80 0 min 0,000 mm 0,0 UV-I 0 W/m 2,3 C 2,6 C 4,8 km/h (1 Bft) 100,00 %
27.01.2016 21:00 2,6 C 98 % 1023,0 hPa 0,0 l/m 0,9 km/h (0 Bft) O 80 0 min 0,000 mm 0,0 UV-I 0 W/m 2,3 C 2,6 C 4,8 km/h (1 Bft) 97,39 %
27.01.2016 21:05 2,4 C 98 % 1023,1 hPa 0,0 l/m 0,1 km/h (0 Bft) O 80 0 min 0,000 mm 0,0 UV-I 0 W/m 2,1 C 2,4 C 1,6 km/h (1 Bft) 99,19 %
27.01.2016 21:10 2,5 C 98 % 1023,1 hPa 0,0 l/m 0,0 km/h (0 Bft) O 80 0 min 0,000 mm 0,0 UV-I 0 W/m 2,2 C 2,5 C 1,6 km/h (1 Bft) 99,17 %
27.01.2016 21:15 2,4 C 98 % 1023,1 hPa 0,0 l/m 0,9 km/h (0 Bft) O 80 0 min 0,000 mm 0,0 UV-I 0 W/m 2,1 C 2,4 C 3,2 km/h (1 Bft) 100,00 %
27.01.2016 21:20 2,4 C 98 % 1023,0 hPa 0,0 l/m 0,4 km/h (0 Bft) O 80 0 min 0,000 mm 0,0 UV-I 0 W/m 2,1 C 2,4 C 1,6 km/h (1 Bft) 99,17 %
27.01.2016 21:25 2,6 C 98 % 1022,9 hPa 0,0 l/m 0,0 km/h (0 Bft) O 80 0 min 0,000 mm 0,0 UV-I 0 W/m 2,3 C 2,6 C 1,6 km/h (1 Bft) 100,00 %
27.01.2016 21:30 2,3 C 98 % 1022,9 hPa 0,0 l/m 1,1 km/h (1 Bft) O 80 0 min 0,000 mm 0,0 UV-I 0 W/m 2,0 C 2,3 C 3,2 km/h (1 Bft) 99,03 %
27.01.2016 21:35 2,2 C 98 % 1022,9 hPa 0,0 l/m 0,8 km/h (0 Bft) O 80 0 min 0,000 mm 0,0 UV-I 0 W/m 1,9 C 2,2 C 3,2 km/h (1 Bft) 99,21 %
27.01.2016 21:40 2,3 C 98 % 1022,7 hPa 0,0 l/m 0,7 km/h (0 Bft) O 81 0 min 0,000 mm 0,0 UV-I 0 W/m 2,0 C 2,3 C 3,2 km/h (1 Bft) 98,31 %
27.01.2016 21:45 2,4 C 98 % 1022,7 hPa 0,0 l/m 1,2 km/h (1 Bft) SO 139 0 min 0,000 mm 0,0 UV-I 0 W/m 2,1 C 2,4 C 3,2 km/h (1 Bft) 100,00 %
27.01.2016 21:50 2,7 C 98 % 1022,6 hPa 0,0 l/m 4,4 km/h (1 Bft) S-SO 167 0 min 0,000 mm 0,0 UV-I 0 W/m 2,4 C 2,7 C 8,0 km/h (2 Bft) 99,21 %
27.01.2016 21:55 2,7 C 98 % 1022,7 hPa 0,0 l/m 0,2 km/h (0 Bft) S-SO 167 0 min 0,000 mm 0,0 UV-I 0 W/m 2,4 C 2,7 C 1,6 km/h (1 Bft) 100,00 %
27.01.2016 22:00 2,4 C 99 % 1022,7 hPa 0,0 l/m 0,1 km/h (0 Bft) S-SO 167 0 min 0,000 mm 0,0 UV-I 0 W/m 2,3 C 2,4 C 1,6 km/h (1 Bft) 99,19 %
27.01.2016 22:05 2,3 C 98 % 1022,6 hPa 0,0 l/m 2,0 km/h (1 Bft) S-SO 167 0 min 0,000 mm 0,0 UV-I 0 W/m 2,0 C 2,3 C 4,8 km/h (1 Bft) 100,00 %
27.01.2016 22:10 2,4 C 99 % 1022,6 hPa 0,0 l/m 0,5 km/h (0 Bft) S-SO 167 0 min 0,000 mm 0,0 UV-I 0 W/m 2,3 C 2,4 C 4,8 km/h (1 Bft) 100,00 %
27.01.2016 22:15 2,4 C 99 % 1022,6 hPa 0,0 l/m 1,0 km/h (0 Bft) S-SO 167 0 min 0,000 mm 0,0 UV-I 0 W/m 2,3 C 2,4 C 4,8 km/h (1 Bft) 96,40 %
27.01.2016 22:20 2,6 C 98 % 1022,6 hPa 0,0 l/m 0,0 km/h (0 Bft) S-SO 167 0 min 0,000 mm 0,0 UV-I 0 W/m 2,3 C 2,6 C 0,0 km/h (0 Bft) 97,52 %
27.01.2016 22:25 2,9 C 99 % 1022,6 hPa 0,0 l/m 1,0 km/h (0 Bft) S-SO 167 0 min 0,000 mm 0,0 UV-I 0 W/m 2,8 C 2,9 C 6,4 km/h (2 Bft) 94,17 %
27.01.2016 22:30 3,0 C 99 % 1022,6 hPa 0,0 l/m 2,0 km/h (1 Bft) SO 137 0 min 0,000 mm 0,0 UV-I 0 W/m 2,9 C 3,0 C 6,4 km/h (2 Bft) 98,26 %
27.01.2016 22:35 2,9 C 99 % 1022,6 hPa 0,0 l/m 0,8 km/h (0 Bft) SO 137 0 min 0,000 mm 0,0 UV-I 0 W/m 2,8 C 2,9 C 3,2 km/h (1 Bft) 96,69 %
27.01.2016 22:40 2,7 C 99 % 1022,6 hPa 0,0 l/m 0,6 km/h (0 Bft) SO 137 0 min 0,000 mm 0,0 UV-I 0 W/m 2,6 C 2,7 C 3,2 km/h (1 Bft) 96,58 %
27.01.2016 22:45 2,7 C 98 % 1022,6 hPa 0,0 l/m 1,5 km/h (1 Bft) SO 137 0 min 0,000 mm 0,0 UV-I 0 W/m 2,4 C 2,7 C 3,2 km/h (1 Bft) 96,61 %
27.01.2016 22:50 2,4 C 99 % 1022,6 hPa 0,0 l/m 0,8 km/h (0 Bft) SO 137 0 min 0,000 mm 0,0 UV-I 0 W/m 2,3 C 2,4 C 3,2 km/h (1 Bft) 98,26 %
27.01.2016 22:55 2,2 C 98 % 1022,6 hPa 0,0 l/m 1,1 km/h (1 Bft) SO 137 0 min 0,000 mm 0,0 UV-I 0 W/m 1,9 C 2,2 C 3,2 km/h (1 Bft) 99,15 %
27.01.2016 23:00 2,4 C 99 % 1022,5 hPa 0,0 l/m 2,5 km/h (1 Bft) O-NO 67 0 min 0,000 mm 0,0 UV-I 0 W/m 2,3 C 2,4 C 4,8 km/h (1 Bft) 97,25 %
27.01.2016 23:05 2,8 C 99 % 1022,6 hPa 0,0 l/m 3,1 km/h (1 Bft) O-NO 78 0 min 0,000 mm 0,0 UV-I 0 W/m 2,7 C 2,8 C 6,4 km/h (2 Bft) 97,52 %
27.01.2016 23:10 2,9 C 99 % 1022,5 hPa 0,0 l/m 2,2 km/h (1 Bft) O-NO 67 0 min 0,000 mm 0,0 UV-I 0 W/m 2,8 C 2,9 C 4,8 km/h (1 Bft) 99,19 %
27.01.2016 23:15 2,7 C 99 % 1022,4 hPa 0,0 l/m 0,9 km/h (0 Bft) O-NO 72 0 min 0,000 mm 0,0 UV-I 0 W/m 2,6 C 2,7 C 3,2 km/h (1 Bft) 100,00 %
27.01.2016 23:20 2,3 C 98 % 1022,4 hPa 0,0 l/m 2,7 km/h (1 Bft) S-SO 151 0 min 0,000 mm 0,0 UV-I 0 W/m 2,0 C 2,3 C 4,8 km/h (1 Bft) 98,41 %
27.01.2016 23:25 2,2 C 98 % 1022,5 hPa 0,0 l/m 2,4 km/h (1 Bft) S 184 0 min 0,000 mm 0,0 UV-I 0 W/m 1,9 C 2,2 C 4,8 km/h (1 Bft) 100,00 %
27.01.2016 23:30 2,2 C 99 % 1022,4 hPa 0,0 l/m 2,2 km/h (1 Bft) S 184 0 min 0,000 mm 0,0 UV-I 0 W/m 2,1 C 2,2 C 4,8 km/h (1 Bft) 100,00 %
27.01.2016 23:35 2,3 C 98 % 1022,4 hPa 0,0 l/m 2,0 km/h (1 Bft) S 184 0 min 0,000 mm 0,0 UV-I 0 W/m 2,0 C 2,3 C 4,8 km/h (1 Bft) 98,15 %
27.01.2016 23:40 2,7 C 99 % 1022,5 hPa 0,0 l/m 0,5 km/h (0 Bft) S 183 0 min 0,000 mm 0,0 UV-I 0 W/m 2,6 C 2,7 C 3,2 km/h (1 Bft) 97,64 %
27.01.2016 23:45 2,6 C 99 % 1022,6 hPa 0,0 l/m 0,6 km/h (0 Bft) S 182 0 min 0,000 mm 0,0 UV-I 0 W/m 2,5 C 2,6 C 3,2 km/h (1 Bft) 99,17 %
27.01.2016 23:50 2,4 C 99 % 1022,6 hPa 0,0 l/m 0,2 km/h (0 Bft) S 182 0 min 0,000 mm 0,0 UV-I 0 W/m 2,3 C 2,4 C 1,6 km/h (1 Bft) 99,08 %
27.01.2016 23:55 2,4 C 99 % 1022,5 hPa 0,0 l/m 0,9 km/h (0 Bft) S 182 0 min 0,000 mm 0,0 UV-I 0 W/m 2,3 C 2,4 C 3,2 km/h (1 Bft) 96,69 %
_ Min-Zeit 03:55 14:30 23:15 - 00:05 - - - - - - 04:10 04:10 02:15 22:25
Minimum _ -2,1 C 89 % 1022,4 hPa - 0,0 km/h (0 Bft) - - - - - - -2,4 C -2,1 C 0,0 km/h (0 Bft) 94,17 %
_ Max-Zeit 14:25 09:40 00:15 00:00 10:45 - - 11:15 15:00 12:45 13:50 14:25 14:25 10:45 00:05
Maximum _ 6,2 C 99 % 1027,2 hPa 0,0 l/m 8,4 km/h
NO (2 Bft)
- - 10 min 0,077 mm 0,8 UV-I 261 W/m 4,7 C 6,2 C 11,3 km/h
NO (2 Bft)
100,00 %
Durchschnitt _ 1,3 C 97 % 1025,2 hPa #0,0 l/m 1,4 km/h (1 Bft) NO - #1:40 h #0,381 mm 0,6 UV-I 116 W/m 1,0 C 1,3 C 3,7 km/h (1 Bft) 98,51 %